Regional Weather Roundup
Issued by NWS State College, PA

Home | Current Version | Previous Version | Text Only | Print | Product List | Glossary On
Versions: 1 2 3 4 5 6 7 8 9 10 11 12 13 14 15 16 17 18 19 20 21 22 23 24 25 26 27 28 29 30 31 32 33 34 35 36 37 38 39 40 41 42 43 44 45 46 47 48 49 50
000
ASUS41 KCTP 201210
RWRCTP

REGIONAL WEATHER ROUNDUP
NATIONAL WEATHER SERVICE STATE COLLEGE PA
800 AM EDT FRI OCT 20 2017

Note: "fair" indicates few or no clouds below 12,000 feet with no
significant weather and/or obstructions to visibility.

* = STATION THAT DOES NOT REPORT PRECIPITATION /E.G. RAIN...SNOW...ETC/
    THUNDER OR FOG.

PAZ002>004-007>009-013>016-020>023-029>032-201300-
WESTERN PENNSYLVANIA

CITY           SKY/WX    TMP DP  RH WIND       PRES   REMARKS
ERIE           FAIR      44  41  89 S5        30.27R
MEADVILLE      FAIR      48  44  86 CALM      30.28R
FRANKLIN*      FAIR      46  43  89 CALM      30.29R
NEW CASTLE     FOG       41  41 100 CALM      30.29R VSB 1/4
BEAVER COUNTY  CLEAR     48  46  93 CALM      30.28R
BUTLER*        FOG       44  44 100 CALM      30.29R VSB 1/4
PITTSBURGH INT MOCLDY    48  45  89 CALM      30.28R
PITTSBURGH     FAIR      52  45  77 SW3       30.28R
INDIANA*       CLEAR     45  43  93 CALM      30.30R
LATROBE        CLEAR     46  45  93 SW7       30.29R
WASHINGTON CO* FAIR      45  44  97 CALM      30.32R
$$

PAZ004>006-010>012-017>019-024>028-033>037-041-042-045-046-049>053-201300-
CENTRAL PENNSYLVANIA

CITY           SKY/WX    TMP DP  RH WIND       PRES   REMARKS
BRADFORD       FAIR      41  41 100 NW6       30.26R FOG
DUBOIS         FOG       44  43  96 SW3       30.25R VSB 1/4
CLEARFIELD     FOG       44  44 100 SW5       30.26R VSB 1/2
JOHNSTOWN      FAIR      50  46  86 W6        30.27R
ALTOONA        FAIR      54  47  77 CALM      30.26R
STATE COLLEGE  CLEAR     48  45  87 SW3       30.24R
WILLIAMSPORT   FAIR      45  44  97 CALM      30.22R
SELINSGROVE    FAIR      43  43 100 CALM      30.23R FOG
FT INDIANTOWN  MOCLDY    49  49  99 SW6       30.21R
CAPITAL CITY   FAIR      51  45  79 NW3       30.22R
HARRISBURG     FAIR      50  49  96 E3        30.21R
YORK           FAIR      45  44  97 CALM      30.22R
$$

PAZ038>040-043-044-047-048-054-055-060>062-067>071-201300-
EASTERN PENNSYLVANIA

CITY           SKY/WX    TMP DP  RH WIND       PRES   REMARKS
SCRANTON       FAIR      46  44  93 CALM      30.19R
MOUNT POCONO   FAIR      47  42  83 W6        30.18R
ALLENTOWN      FAIR      48  43  82 CALM      30.19R
QUAKERTOWN*    FAIR      48  45  87 CALM      30.20R
READING        FAIR      51  48  89 CALM      30.20R
LANCASTER      FAIR      49  46  90 NW5       30.21R
COATESVILLE    FAIR      52  46  82 W7        30.21R
POTTSTOWN      FAIR      50  47  89 W3        30.21R
BLUE BELL      FAIR      48  48 100 CALM      30.21R
DOYLESTOWN     FAIR      48  46  93 CALM      30.18R
WILLOW GROVE   NOT AVBL
NORTH PHILA    FAIR      57  47  69 W5        30.20R
PHILADELPHIA   MOCLDY    58  46  64 NW8       30.19R
$$




USA.gov is the U.S. government's official web portal to all federal, state and local government web resources and services.